Temperature
17 17 17 18 18 18 19 21 22 21 20 20 19 19 17 16 16 14 12 12 13 13 13 14 14 14 14 14 14 14 14 14 14 14 15 15 15 15 15 15 15 15 15 15 15 15 15 15 15
17 17 17 18 18 18 19 20 20 19 19 19 19 18 17 15 13 12 12 12 12 12 13 13 14 14 14 14 14 14 14 14 14 14 14 14 14 14 14 14 14 14 14 14 14 15 15 15 15
17 17 18 18 19 19 20 19 19 19 19 18 17 16 15 13 12 12 11 12 12 12 12 13 13 13 14 14 14 14 14 14 14 14 14 14 14 14 14 14 14 14 14 14 14 15 15 15 15
16 17 19 18 19 19 19 19 19 19 19 18 17 15 12 11 11 11 11 11 11 12 12 12 13 13 13 13 13 13 13 13 13 14 14 14 14 14 14 14 14 14 14 14 14 14 14 14 14
17 18 18 18 18 19 19 19 19 18 18 17 16 14 11 11 11 11 11 11 11 11 12 12 12 13 13 13 13 13 13 13 13 13 13 13 13 13 14 14 14 14 14 14 14 14 14 14 14
17 18 18 18 18 18 18 18 18 17 16 16 15 14 11 10 11 11 11 11 11 11 11 12 12 12 12 12 12 13 13 13 13 13 13 13 13 13 13 13 13 13 13 13 14 14 14 14 14
17 17 17 18 18 17 17 17 17 16 15 14 14 13 11 10 10 10 10 10 10 11 11 11 11 11 12 12 12 12 12 12 12 12 13 13 12 12 13 13 13 13 13 13 13 13 14 14 14
16 16 18 17 17 16 16 16 15 14 13 12 12 11 10 9 9 10 10 10 10 10 10 11 11 11 11 11 12 12 12 12 12 12 12 12 12 12 12 12 12 12 13 13 13 13 13 13 13
16 15 16 17 16 15 15 14 13 13 12 11 10 9 9 9 9 9 9 10 10 10 10 10 10 11 11 11 11 11 11 11 12 12 12 12 12 12 12 12 12 12 12 12 12 13 13 13 13
16 14 15 15 15 14 14 13 13 12 11 10 9 8 8 8 8 9 9 9 9 9 9 9 10 10 10 10 10 11 11 11 11 11 11 11 11 11 12 12 12 12 12 12 12 12 12 12 12
15 14 14 14 14 13 13 12 11 12 10 9 8 7 7 7 8 8 8 8 8 8 8 9 9 9 10 10 10 10 10 10 11 11 11 11 11 11 11 11 11 12 12 12 12 12 12 12 12
14 13 13 12 12 12 11 11 10 9 8 8 7 7 6 6 7 7 7 7 7 7 8 8 8 8 9 9 9 9 10 10 10 10 10 10 10 10 11 11 11 11 11 11 11 11 11 11 11
13 12 12 11 11 11 10 10 9 8 7 7 7 6 6 6 6 6 6 6 7 7 7 7 7 8 8 8 9 9 9 9 9 9 10 10 10 10 10 10 10 10 10 10 10 10 11 11 11
12 12 11 11 10 10 9 9 8 7 7 6 6 5 5 5 5 5 5 6 6 6 6 7 7 7 7 8 8 8 9 9 9 9 9 9 9 9 10 10 10 10 10 10 10 10 10 10 10
12 11 11 11 11 10 9 8 8 7 7 6 6 5 4 4 4 4 4 4 5 5 6 6 6 6 7 7 7 8 8 8 8 8 8 9 9 9 9 9 9 9 9 9 9 10 10 10 10
12 11 10 11 11 10 10 8 8 7 7 6 5 5 4 3 3 3 3 4 4 5 5 5 5 6 6 6 6 7 7 7 8 8 8 8 8 8 9 9 9 9 9 9 9 9 9 9 10
11 11 11 10 11 10 9 8 7 7 6 6 5 4 3 3 3 3 3 3 3 4 4 5 5 5 5 5 6 6 6 6 7 7 7 8 8 8 8 8 8 8 9 9 9 9 9 9 9
10 11 12 10 10 10 8 8 7 6 6 6 5 4 3 3 2 2 2 2 3 3 3 4 4 4 4 5 5 5 5 6 6 6 7 7 7 7 8 8 8 8 8 8 8 8 8 8 8
11 11 11 10 9 9 8 8 7 6 6 5 4 4 3 2 2 2 2 2 2 3 3 3 3 3 4 4 4 4 5 5 5 5 6 6 6 7 7 7 7 7 7 7 7 7 7 8 7
10 10 10 9 9 9 8 7 7 6 5 5 4 3 2 2 1 1 1 1 2 2 2 2 2 3 3 3 3 3 3 4 4 4 5 5 6 6 6 6 6 7 7 7 7 7 7 7 7
10 9 9 8 8 8 7 7 6 5 5 4 4 3 2 2 1 1 1 1 1 1 1 1 2 2 2 2 3 3 3 3 4 4 4 4 5 5 5 5 6 6 6 6 6 6 6 6 6
8 8 8 8 6 6 7 5 6 5 4 4 4 3 2 1 1 0 -0 -0 0 0 1 1 1 1 1 2 2 2 2 2 2 3 3 3 4 4 4 4 5 5 5 5 5 5 5 5 5
7 7 7 7 7 6 7 5 5 5 4 3 3 2 2 1 -0 -0 -1 -1 -1 -0 -0 0 0 0 1 1 1 1 1 1 2 2 2 3 3 3 3 4 4 4 4 4 4 4 4 4 4
7 7 7 7 6 5 6 5 5 4 4 3 3 2 1 0 -1 -1 -1 -1 -1 -1 -1 -1 -0 -0 0 0 0 0 0 1 1 1 1 2 2 2 2 3 3 3 3 3 4 4 4 4 4
6 5 5 5 5 5 6 6 4 4 4 3 2 2 1 -0 -1 -1 -1 -1 -1 -1 -1 -1 -1 -1 -1 -0 -0 -0 -0 -0 -0 0 0 1 1 2 2 2 2 2 2 3 3 3 3 3 3
6 6 5 5 5 5 5 4 3 3 3 2 2 1 0 -1 -1 -2 -2 -2 -2 -2 -2 -2 -2 -1 -1 -1 -1 -1 -1 -1 -1 -1 -0 -0 0 1 1 1 1 2 2 2 2 2 2 2 3
6 5 5 4 4 4 4 4 2 2 1 1 1 0 -0 -1 -2 -2 -2 -2 -2 -2 -2 -2 -2 -2 -2 -2 -2 -2 -2 -2 -1 -1 -1 -1 -1 -0 0 0 1 1 1 1 1 1 2 2 2
5 5 4 4 3 4 5 5 3 0 0 0 0 -0 -1 -1 -2 -2 -2 -3 -3 -3 -3 -3 -3 -3 -3 -3 -3 -3 -2 -2 -2 -2 -2 -2 -1 -1 -1 -0 0 0 0 1 1 1 1 1 1
4 4 4 4 4 3 3 3 2 1 0 -0 -0 -1 -1 -2 -2 -3 -3 -3 -3 -3 -3 -3 -3 -3 -3 -3 -3 -3 -3 -3 -3 -3 -2 -2 -2 -2 -1 -1 -1 -0 -0 -0 0 0 0 0 1
4 4 3 2 2 3 2 2 1 1 1 0 -0 -1 -1 -2 -3 -3 -3 -3 -4 -4 -4 -4 -4 -4 -4 -4 -4 -4 -4 -4 -4 -3 -3 -3 -3 -2 -2 -2 -1 -1 -1 -1 -1 -0 -0 -0 0
Wind_Speed
14 12 6 2 3 3 2 1 5 7 5 7 7 7 8 9 7 7 2 7 8 7 9 9 11 11 11 11 10 9 9 9 9 9 9 9 9 8 9 9 9 9 9 9 10 10 10 11 10
12 7 4 3 3 3 2 3 7 8 7 5 6 7 8 8 8 6 5 7 8 9 11 10 12 12 11 11 10 9 9 9 9 9 9 9 9 8 8 8 9 9 9 9 10 10 10 10 9
10 7 3 3 2 1 3 7 9 7 7 5 5 8 6 6 6 4 6 7 9 10 12 11 13 13 12 12 11 10 9 9 9 8 8 8 9 9 8 8 8 9 10 10 9 10 10 9 9
5 3 3 3 1 4 6 7 7 6 6 6 6 7 6 7 5 5 6 7 8 10 12 12 13 13 13 12 12 11 10 9 9 8 8 8 9 9 8 9 9 9 10 10 9 9 9 9 8
4 3 4 2 1 5 7 7 4 5 4 6 7 5 6 6 8 8 7 7 8 9 11 11 13 13 13 13 12 11 11 9 8 8 8 8 8 9 8 9 10 10 9 9 9 9 8 8 7
3 3 3 3 4 5 6 5 4 7 6 7 6 4 5 6 9 8 8 8 9 10 11 10 11 12 12 12 12 11 10 10 8 7 7 7 7 8 8 8 8 8 8 8 8 7 7 7 6
3 3 3 1 3 5 5 5 6 6 6 6 5 3 5 7 7 7 7 8 10 11 11 11 10 10 11 11 11 11 10 9 9 7 6 6 6 6 7 7 7 7 7 7 7 6 6 5 4
4 3 2 1 2 3 5 5 6 7 6 6 7 4 4 5 5 6 7 8 8 10 10 10 10 11 10 9 10 10 10 9 9 8 5 5 5 6 6 6 6 6 6 6 6 6 5 4 3
4 2 1 2 2 4 6 4 5 6 7 6 7 7 6 6 6 7 7 8 9 9 9 11 11 11 10 8 8 8 8 9 8 8 7 5 4 4 5 5 5 4 4 5 5 4 4 3 3
2 1 2 5 5 5 5 4 3 3 5 5 7 8 7 7 7 7 7 8 8 9 8 10 11 11 11 9 8 8 8 8 8 7 6 4 4 4 4 4 4 4 4 3 4 3 3 3 2
2 2 3 7 8 5 4 4 4 3 4 4 6 6 6 7 7 7 7 7 7 7 8 9 11 11 10 9 8 7 7 7 8 9 8 6 5 5 5 4 3 3 3 3 2 2 2 3 3
2 5 5 4 6 5 4 3 4 6 5 6 7 7 7 7 8 7 7 8 7 8 8 8 10 11 11 10 8 8 8 7 7 9 9 7 5 5 4 3 3 2 2 2 2 1 2 2 2
3 3 5 5 5 5 5 4 3 4 5 7 7 7 7 7 7 7 7 7 7 8 8 8 10 10 10 9 8 8 8 7 8 8 9 8 6 4 4 3 3 3 2 2 2 2 2 2 2
4 5 4 3 4 3 4 2 2 3 5 6 6 6 6 7 8 8 8 8 8 8 8 7 8 10 10 8 8 7 8 8 7 8 9 9 7 6 4 3 3 3 3 2 2 2 2 2 2
4 3 3 3 3 3 3 1 3 4 4 4 5 5 6 7 7 8 8 8 8 7 8 8 8 10 10 9 9 8 8 8 7 8 9 9 8 7 5 3 3 4 4 3 3 2 2 2 2
4 3 2 3 3 2 3 2 5 5 4 4 4 4 5 6 6 7 7 7 8 7 7 8 9 9 9 9 8 7 8 8 7 8 8 10 10 9 6 4 3 5 4 3 2 1 1 1 1
3 4 3 3 3 2 3 1 4 4 4 4 4 4 4 5 6 6 7 7 7 7 7 7 8 8 8 8 7 7 8 8 8 8 9 10 10 9 7 4 4 5 4 3 2 2 1 2 2
2 4 2 3 3 2 3 2 3 4 3 3 4 4 3 4 5 5 6 7 7 7 7 7 7 8 8 8 6 5 5 6 8 8 9 9 9 10 9 5 4 5 3 2 2 2 2 1 2
5 5 4 2 1 2 5 5 5 5 3 3 3 2 3 4 4 5 5 6 6 7 8 8 8 8 7 6 5 4 4 4 5 7 9 9 9 9 8 6 4 3 1 2 2 2 2 2 2
5 5 4 2 1 3 5 7 5 6 5 3 3 2 2 3 4 5 5 6 6 7 8 8 7 7 7 5 4 3 4 3 4 6 8 9 9 8 7 7 4 3 2 1 1 1 1 2 2
4 3 4 3 4 5 5 6 6 5 5 3 3 2 2 2 3 4 5 6 6 6 7 7 7 7 7 7 5 5 4 4 4 5 5 8 9 9 8 7 5 3 2 1 2 1 1 2 3
3 3 4 3 4 4 4 4 4 7 6 5 3 2 2 2 2 3 4 5 6 6 6 7 7 7 7 7 6 6 5 5 6 5 5 8 9 9 8 8 6 4 3 2 2 2 2 2 3
2 4 4 5 5 5 5 5 3 6 5 6 4 3 2 3 3 3 3 4 5 5 5 6 7 7 7 7 6 6 5 5 5 6 6 6 6 8 8 8 7 4 3 3 3 2 2 2 3
2 3 4 4 3 5 6 6 3 3 3 3 4 3 2 3 2 3 4 4 4 5 5 5 6 6 7 7 7 6 7 7 7 7 7 6 5 6 8 9 8 6 4 3 3 3 3 4 4
2 1 1 2 3 5 2 3 3 3 4 4 4 3 2 2 2 2 3 4 4 5 5 5 6 6 7 7 6 7 7 6 6 7 6 7 5 5 6 8 7 6 5 5 4 4 4 5 5
2 1 1 3 4 3 2 5 2 5 6 5 4 3 2 2 2 2 2 3 4 4 5 5 6 6 6 6 7 6 6 5 5 6 6 7 5 5 8 9 8 8 7 6 5 4 5 5 5
1 1 1 2 4 4 5 3 2 3 3 3 3 2 2 2 2 2 2 3 3 4 5 5 5 6 6 6 6 6 6 6 6 6 6 6 6 8 8 9 9 8 7 6 5 4 5 4 5
2 1 1 2 3 5 6 4 3 3 2 1 1 0 1 1 2 3 3 3 3 3 4 4 5 5 6 6 6 7 6 6 6 6 7 7 7 8 9 8 8 7 6 5 5 5 5 5 5
3 2 3 3 3 3 5 3 2 3 3 2 1 0 1 2 2 3 3 3 3 3 3 4 5 5 6 6 6 6 6 6 6 6 7 7 7 8 8 8 7 7 6 5 5 5 5 6 6
1 3 4 3 4 4 4 4 3 4 3 2 1 1 1 2 2 2 3 3 3 4 4 4 5 6 5 6 6 6 7 7 7 7 7 8 8 8 9 9 8 7 7 6 6 6 6 7 7
Wind_Direction
300 271 253 260 248 231 219 64 74 73 60 43 33 44 60 47 43 89 55 24 38 50 57 46 40 43 48 50 57 67 70 70 66 65 62 62 62 61 56 57 64 69 70 69 71 73 74 74 73
293 281 263 242 245 221 179 100 71 63 75 65 44 50 63 65 57 79 38 21 38 50 57 46 42 42 47 49 51 61 66 68 65 62 60 58 56 56 54 58 63 65 66 66 69 72 73 74 74
278 266 259 248 265 270 90 80 82 76 79 72 57 46 48 46 47 46 29 26 43 49 57 48 45 43 46 49 50 55 61 62 61 58 57 54 52 53 55 59 63 66 68 68 69 72 72 73 74
280 250 245 251 269 37 66 80 85 90 73 68 79 80 70 41 33 33 35 35 47 47 53 49 44 44 44 47 50 51 53 59 58 55 53 50 48 48 53 57 62 66 66 66 68 71 72 71 70
246 259 236 211 195 72 60 64 86 88 79 68 72 82 85 56 48 42 34 40 48 45 49 50 42 42 43 43 45 48 46 47 54 54 51 47 47 48 51 59 61 63 65 66 66 68 70 66 61
267 257 242 202 137 99 71 43 59 73 69 58 64 80 93 61 44 37 36 39 45 44 44 49 42 40 38 39 39 39 42 38 40 51 50 47 48 51 49 54 60 60 60 63 63 65 65 61 52
298 278 261 200 124 108 72 35 45 71 60 39 18 68 103 49 37 38 42 44 46 43 38 35 33 35 34 32 33 32 33 35 31 36 46 46 49 53 53 50 54 58 58 57 58 62 65 58 48
317 304 269 193 146 102 75 51 36 42 59 39 21 59 73 40 39 49 52 47 45 42 34 31 27 25 25 27 29 27 27 29 30 28 33 41 50 57 57 51 50 53 57 57 55 58 58 53 40
299 283 264 12 79 91 90 68 45 51 64 58 52 51 63 65 55 51 44 37 35 32 27 24 23 18 13 18 22 18 22 25 26 24 24 35 42 53 62 49 52 51 52 53 51 51 46 39 28
326 291 35 22 42 70 73 68 61 88 72 55 56 56 61 61 54 47 41 30 26 23 20 21 16 14 11 12 15 14 17 21 21 19 20 11 21 36 44 54 54 48 46 49 45 41 44 26 9
15 47 60 41 47 62 64 59 42 86 56 43 53 53 49 49 48 43 36 31 27 24 21 17 12 10 11 8 11 12 9 11 14 10 9 9 17 30 35 43 42 47 48 36 32 32 16 7 2
64 50 57 52 45 56 57 47 42 41 47 48 64 60 50 47 40 37 32 25 25 27 21 13 11 10 7 6 4 12 8 5 8 3 4 9 12 13 17 25 15 24 28 14 349 335 0 355 343
106 88 74 73 69 70 72 71 76 64 63 63 67 61 51 45 42 38 35 30 24 23 17 9 8 8 4 3 3 8 5 3 4 359 360 4 9 5 3 6 7 359 4 1 353 349 356 340 321
101 110 109 107 98 90 93 83 101 96 96 83 75 64 53 45 37 33 25 23 19 16 12 5 4 6 5 5 1 1 360 2 1 358 357 359 3 357 358 3 1 352 347 338 331 334 342 322 323
125 141 154 155 140 141 145 175 155 122 121 98 80 70 61 49 42 33 23 18 14 12 10 5 1 4 4 2 359 358 359 4 3 359 353 357 357 353 355 2 357 345 341 346 338 338 348 327 336
203 197 199 157 161 169 232 242 127 132 136 114 96 79 67 52 43 35 25 18 13 11 11 7 3 1 360 358 353 356 357 1 2 1 356 357 353 352 352 359 348 340 344 353 345 340 336 327 322
211 242 224 164 174 165 239 230 138 147 133 119 103 86 72 57 42 34 28 20 14 10 9 10 4 1 355 352 353 358 358 360 1 1 359 353 350 347 348 345 344 339 347 353 344 351 347 332 327
252 258 249 194 172 199 241 226 153 141 141 124 103 88 75 60 45 33 29 22 14 12 10 11 6 1 356 353 353 355 353 356 357 357 356 352 347 342 342 340 346 344 346 344 352 351 347 331 316
320 302 304 342 59 252 244 236 184 156 145 123 113 98 71 58 52 45 34 24 16 12 9 9 8 1 360 356 351 346 342 336 343 350 351 349 343 337 342 340 336 341 318 321 340 353 339 327 333
299 295 303 325 359 278 267 256 193 159 166 158 138 110 82 56 41 34 32 24 17 10 5 7 6 360 358 354 343 329 326 324 336 343 345 346 341 336 335 337 321 324 297 314 332 349 326 302 319
290 301 314 315 314 253 269 269 191 163 154 154 145 124 103 68 38 23 21 20 15 11 2 0 0 357 357 353 344 341 342 333 340 339 333 339 336 331 329 328 323 309 287 262 273 267 316 276 282
290 357 317 298 288 265 199 276 203 169 173 185 174 150 123 86 48 28 14 10 10 9 2 358 357 357 355 353 349 348 346 337 328 324 320 327 330 330 325 325 323 302 291 258 255 275 283 245 262
332 329 290 263 262 285 232 244 244 160 193 199 179 140 107 88 62 39 18 10 6 9 3 356 357 356 355 354 350 345 337 328 322 324 322 322 323 327 330 326 319 302 290 264 257 259 259 255 260
315 290 261 246 244 261 229 211 252 186 187 164 153 130 101 77 53 33 24 16 3 3 1 356 356 353 353 352 350 346 338 336 333 331 328 328 320 318 325 329 321 307 297 273 260 248 245 254 264
287 308 309 267 227 244 197 209 228 96 72 97 120 115 89 79 55 18 6 1 356 352 350 349 353 350 347 346 345 342 337 333 330 329 327 326 323 318 309 319 310 303 297 290 280 250 240 246 253
242 276 209 251 264 281 254 232 175 92 73 72 90 108 92 48 37 7 350 348 344 344 345 344 345 341 339 339 336 335 335 327 324 325 322 319 316 312 315 319 312 305 296 289 278 253 249 247 248
265 225 334 312 296 283 255 199 136 90 84 85 95 87 50 22 359 349 341 341 336 337 338 336 337 333 332 330 329 329 331 328 325 322 317 312 309 311 314 315 305 301 298 288 277 253 249 253 254
319 338 172 210 267 272 271 244 214 185 207 182 147 100 351 347 346 343 334 334 331 331 332 335 331 326 323 324 324 325 322 320 317 316 315 311 310 310 306 306 303 297 291 287 273 263 249 250 255
181 211 229 247 245 255 281 273 80 140 157 184 196 186 298 318 327 331 328 328 328 334 338 336 329 324 321 321 319 318 316 316 317 315 314 311 308 307 306 300 296 294 290 282 270 268 259 248 252
218 213 188 208 249 234 259 266 78 85 114 142 192 265 294 312 319 326 328 328 328 329 332 330 330 325 320 317 315 315 315 317 316 315 314 312 308 308 307 300 295 290 291 287 277 270 266 252 246
Height
1507 1509 1511 1513 1515 1517 1515 1508 1504 1509 1513 1517 1517 1518 1522 1528 1533 1544 1545 1542 1540 1540 1539 1539 1540 1540 1541 1541 1542 1542 1542 1543 1543 1543 1544 1544 1544 1544 1545 1545 1545 1545 1546 1546 1546 1547 1547 1547 1548
1508 1510 1513 1513 1516 1519 1516 1509 1510 1513 1517 1518 1520 1522 1525 1532 1537 1541 1541 1541 1541 1540 1539 1539 1540 1540 1541 1542 1542 1543 1543 1543 1544 1544 1544 1545 1545 1545 1545 1546 1546 1546 1546 1546 1547 1547 1548 1548 1549
1509 1511 1513 1511 1512 1514 1514 1511 1514 1516 1519 1520 1524 1527 1532 1538 1541 1542 1542 1542 1541 1540 1540 1540 1540 1541 1541 1542 1542 1543 1543 1544 1544 1544 1545 1545 1545 1545 1546 1546 1546 1546 1547 1547 1547 1548 1548 1549 1550
1511 1513 1513 1513 1514 1511 1511 1513 1515 1518 1521 1523 1526 1531 1537 1542 1542 1543 1542 1542 1541 1540 1540 1540 1541 1541 1541 1542 1542 1543 1544 1544 1544 1545 1545 1545 1545 1545 1546 1546 1546 1547 1547 1547 1548 1548 1549 1550 1550
1512 1512 1512 1514 1513 1513 1513 1515 1517 1519 1522 1525 1528 1534 1540 1543 1542 1542 1542 1542 1541 1541 1540 1541 1541 1541 1542 1542 1543 1543 1544 1544 1545 1545 1545 1546 1546 1546 1546 1546 1547 1547 1547 1547 1548 1548 1549 1550 1550
1513 1510 1514 1516 1514 1515 1517 1519 1519 1522 1525 1528 1531 1535 1541 1543 1542 1542 1542 1542 1541 1541 1541 1541 1541 1541 1542 1542 1542 1543 1544 1544 1544 1545 1545 1545 1546 1546 1546 1546 1546 1547 1547 1547 1548 1548 1549 1549 1550
1513 1511 1512 1512 1515 1518 1520 1521 1523 1525 1528 1531 1533 1536 1541 1542 1542 1542 1542 1542 1541 1541 1541 1541 1541 1541 1541 1542 1542 1543 1543 1544 1544 1544 1545 1545 1545 1546 1546 1546 1546 1546 1547 1547 1548 1548 1548 1549 1550
1512 1513 1511 1513 1517 1521 1523 1524 1527 1528 1531 1534 1535 1538 1541 1542 1542 1542 1542 1542 1542 1541 1541 1541 1541 1541 1541 1541 1542 1542 1542 1543 1543 1544 1544 1545 1545 1545 1546 1546 1546 1546 1546 1547 1547 1548 1548 1549 1549
1513 1517 1518 1517 1518 1522 1524 1527 1530 1532 1534 1536 1538 1540 1542 1542 1541 1541 1541 1541 1541 1541 1541 1541 1541 1541 1541 1541 1541 1541 1542 1542 1543 1543 1543 1544 1544 1544 1545 1545 1545 1546 1546 1546 1547 1547 1547 1548 1549
1515 1520 1521 1520 1520 1523 1526 1529 1532 1533 1536 1538 1540 1541 1541 1541 1541 1541 1540 1540 1540 1540 1540 1541 1541 1540 1540 1540 1540 1540 1541 1541 1541 1542 1542 1543 1543 1543 1543 1544 1544 1545 1545 1545 1546 1546 1547 1547 1548
1517 1521 1522 1524 1524 1526 1528 1531 1533 1534 1538 1540 1541 1542 1541 1541 1541 1541 1541 1541 1541 1540 1540 1540 1540 1540 1540 1539 1539 1539 1539 1540 1540 1541 1541 1541 1542 1542 1542 1542 1543 1543 1544 1544 1545 1545 1546 1546 1547
1521 1523 1525 1527 1528 1529 1531 1533 1535 1537 1541 1542 1542 1542 1542 1541 1541 1541 1541 1541 1540 1540 1539 1539 1539 1539 1539 1539 1538 1538 1538 1538 1539 1539 1539 1540 1540 1540 1541 1541 1541 1542 1542 1542 1543 1544 1544 1545 1546
1523 1526 1527 1529 1530 1531 1533 1535 1537 1540 1541 1541 1542 1542 1542 1542 1542 1541 1541 1541 1540 1539 1539 1538 1538 1538 1537 1537 1537 1537 1537 1537 1537 1537 1538 1538 1538 1539 1539 1539 1540 1540 1540 1541 1542 1542 1543 1543 1544
1524 1526 1528 1530 1531 1533 1534 1536 1538 1540 1541 1542 1542 1542 1542 1542 1542 1541 1540 1540 1539 1539 1538 1538 1537 1536 1536 1535 1535 1535 1535 1535 1535 1535 1536 1536 1536 1537 1537 1537 1538 1538 1539 1539 1540 1540 1541 1541 1542
1525 1527 1529 1530 1531 1533 1534 1537 1538 1540 1541 1542 1542 1543 1543 1542 1542 1541 1540 1539 1539 1538 1537 1537 1536 1535 1534 1534 1533 1533 1533 1533 1533 1533 1534 1534 1534 1535 1535 1535 1536 1536 1537 1537 1538 1538 1539 1539 1540
1524 1526 1529 1529 1530 1531 1535 1536 1537 1538 1540 1541 1542 1542 1542 1542 1542 1541 1540 1539 1538 1537 1536 1535 1535 1534 1533 1532 1531 1531 1531 1531 1531 1531 1531 1531 1532 1532 1532 1533 1533 1534 1534 1535 1535 1536 1536 1537 1537
1526 1528 1526 1529 1528 1530 1533 1534 1537 1537 1538 1540 1541 1542 1542 1542 1542 1541 1540 1539 1537 1536 1535 1534 1533 1532 1531 1530 1529 1529 1529 1529 1529 1529 1529 1529 1529 1529 1529 1530 1530 1531 1531 1532 1532 1533 1533 1534 1534
1528 1525 1522 1526 1527 1529 1532 1534 1536 1536 1538 1539 1541 1542 1542 1542 1541 1541 1539 1538 1537 1535 1534 1533 1531 1530 1529 1529 1528 1527 1526 1526 1526 1526 1526 1526 1526 1526 1527 1527 1527 1528 1528 1529 1529 1530 1530 1531 1531
1523 1523 1524 1526 1527 1529 1530 1531 1533 1535 1537 1538 1540 1541 1542 1542 1541 1540 1539 1537 1536 1534 1533 1531 1530 1529 1528 1526 1525 1524 1523 1523 1523 1523 1523 1523 1523 1523 1523 1523 1524 1524 1525 1525 1526 1526 1527 1528 1529
1524 1525 1526 1528 1528 1529 1529 1529 1529 1532 1535 1537 1539 1540 1540 1540 1540 1539 1538 1536 1535 1533 1531 1530 1529 1527 1526 1525 1524 1523 1522 1520 1521 1520 1520 1520 1520 1520 1520 1520 1520 1521 1521 1522 1522 1522 1523 1524 1526
1525 1528 1529 1530 1530 1528 1530 1529 1528 1530 1533 1536 1537 1539 1539 1539 1539 1538 1537 1535 1534 1532 1531 1529 1528 1526 1525 1524 1522 1521 1520 1518 1518 1517 1516 1516 1516 1516 1516 1516 1517 1517 1518 1518 1518 1519 1520 1520 1522
1529 1528 1529 1530 1534 1532 1530 1537 1526 1528 1531 1533 1535 1537 1537 1538 1538 1537 1535 1534 1532 1531 1530 1528 1526 1525 1523 1522 1520 1519 1517 1516 1515 1514 1513 1512 1512 1512 1512 1512 1513 1513 1514 1514 1514 1515 1516 1517 1517
1531 1529 1529 1529 1531 1533 1528 1534 1528 1526 1529 1531 1532 1534 1536 1536 1536 1535 1534 1533 1532 1530 1528 1527 1525 1523 1522 1520 1519 1517 1515 1514 1512 1511 1510 1509 1508 1508 1508 1508 1508 1509 1509 1510 1510 1511 1512 1513 1513
1531 1530 1529 1529 1533 1539 1525 1531 1527 1527 1526 1527 1530 1532 1534 1535 1535 1534 1533 1532 1530 1528 1527 1525 1523 1521 1520 1518 1516 1515 1513 1511 1509 1508 1506 1505 1504 1504 1504 1503 1504 1505 1505 1505 1506 1506 1507 1508 1509
1532 1535 1538 1538 1538 1532 1521 1525 1528 1524 1524 1525 1528 1531 1532 1533 1533 1532 1531 1529 1528 1526 1525 1523 1521 1519 1517 1516 1513 1512 1510 1508 1507 1505 1503 1502 1501 1500 1499 1499 1499 1500 1500 1500 1501 1501 1502 1503 1504
1533 1534 1542 1543 1535 1528 1525 1527 1527 1525 1525 1526 1528 1530 1531 1532 1531 1531 1529 1528 1526 1524 1522 1521 1519 1517 1515 1513 1510 1509 1507 1506 1504 1502 1500 1498 1497 1496 1495 1495 1495 1495 1496 1496 1496 1496 1497 1498 1498
1533 1535 1535 1540 1537 1538 1527 1522 1527 1526 1527 1528 1528 1529 1530 1530 1530 1529 1528 1526 1524 1522 1521 1519 1517 1515 1512 1510 1508 1506 1504 1502 1500 1498 1497 1495 1494 1492 1491 1491 1490 1490 1491 1491 1491 1491 1491 1492 1493
1534 1534 1539 1541 1542 1536 1523 1518 1525 1528 1528 1527 1528 1528 1529 1529 1528 1527 1526 1524 1522 1520 1518 1516 1514 1512 1510 1507 1505 1503 1501 1499 1497 1495 1493 1491 1490 1489 1487 1486 1485 1485 1485 1486 1486 1486 1486 1487 1487
1536 1536 1536 1537 1537 1540 1535 1528 1523 1523 1525 1526 1527 1527 1528 1527 1526 1525 1524 1522 1520 1518 1516 1514 1511 1509 1506 1504 1502 1500 1498 1496 1493 1491 1489 1487 1485 1484 1482 1481 1481 1480 1480 1480 1481 1481 1481 1481 1481
1531 1532 1535 1542 1539 1535 1538 1534 1523 1523 1523 1525 1526 1526 1526 1526 1525 1523 1522 1520 1518 1515 1513 1511 1508 1506 1503 1501 1499 1496 1494 1492 1489 1487 1485 1483 1481 1479 1478 1476 1475 1475 1475 1475 1475 1475 1475 1475 1475